User: anonymous   Login
Location: Starry Hill Observatory
(46.8582°N, 122.3590°W)
Time: 23:21:35
(UTC-07:00)
Language:

Cosmos 1300 Rocket - Orbit

View from above orbital plane
View from above orbital plane
View from above satellite
View from above satellite

Ground track
Ground track

The orbit data is extracted from the following two-line orbital elements,

1 12786U 81082B   15115.13597618  .00000583  00000-0  66317-4 0  9999
2 12786 082.4895 346.5673 0016803 327.0462 032.9704 14.84438665818481
Epoch (UTC): 25 April 2015 03:15:48
Eccentricity: 0.0016803
inclination: 82.4895°
perigee height: 603 km
apogee height: 627 km
right ascension of ascending node: 346.5673°
argument of perigee: 327.0462°
revolutions per day: 14.84438665
mean anomaly at epoch: 32.9704°
orbit number at epoch: 81848

The dashed part of the orbit path shows where the satellite is in the earth's shadow,  

DLR